Regional Weather Roundup
Issued by NWS

Home | Current Version | Previous Version | Graphics & Text | Print | Product List | Glossary On
Versions: 1 2 3 4 5 6 7 8 9 10 11 12 13 14 15 16 17 18 19 20 21 22 23 24 25 26 27 28 29 30 31 32 33 34 35 36 37 38 39 40 41 42 43 44 45 46 47 48 49 50
000
ASUS43 KBIS 011010
RWRND

NORTH DAKOTA REGIONAL WEATHER ROUNDUP
NATIONAL WEATHER SERVICE BISMARCK ND
500 AM CDT WED OCT 01 2014

NOTE: "FAIR" INDICATES FEW OR NO CLOUDS BELOW 12,000 FEET WITH NO
SIGNIFICANT WEATHER AND/OR OBSTRUCTIONS TO VISIBILITY.


NDZ001>003-009>011-017-011100-
NORTHWEST NORTH DAKOTA

CITY           SKY/WX    TMP DP  RH WIND       PRES   REMARKS
WILLISTON      CLOUDY    54  50  86 W22G29    29.52R
MINOT          MOCLDY    51  48  89 SW8       29.43R
MINOT AFB      CLOUDY    49  49 100 W7        29.43R
$$

NDZ018>021-031>035-040>046-011100-
SOUTHWEST NORTH DAKOTA

CITY           SKY/WX    TMP DP  RH WIND       PRES   REMARKS
BISMARCK       CLOUDY    56  53  90 W10       29.55R
DICKINSON      CLOUDY    53  48  83 W17G28    29.59R
GARRISON         N/A     54  52  93 SW8       29.48R
HETTINGER ARPT CLOUDY    52  49  89 W18       29.66R
$$

NDZ004>008-012>016-024-026-027-054-011100-
NORTHEAST NORTH DAKOTA

CITY           SKY/WX    TMP DP  RH WIND       PRES   REMARKS
GRAND FORKS    CLOUDY    62  53  72 S23G31    29.51R
GRND FRKS AFB  CLOUDY    60  55  85 SW24G32   29.51R
DEVILS LAKE    CLOUDY    55  46  71 SW17G26   29.44R
$$

NDZ022-023-025-028>030-036>039-047>053-011100-
SOUTHEAST NORTH DAKOTA

CITY           SKY/WX    TMP DP  RH WIND       PRES   REMARKS
FARGO          MOCLDY    62  57  83 S18G26    29.60R
JAMESTOWN      CLOUDY    56  51  84 SW12      29.55R
$$




USA.gov is the U.S. government's official web portal to all federal, state and local government web resources and services.